Regional Weather Roundup
Issued by NWS

Home | Current Version | Previous Version | Text Only | Print | Product List | Glossary On
Versions: 1 2 3 4 5 6 7 8 9 10 11 12 13 14 15 16 17 18 19 20 21 22 23 24 25 26 27 28 29 30 31 32 33 34 35 36 37 38 39 40 41 42 43 44 45 46 47 48 49 50
637
ASUS43 KOAX 061702
RWRNE

WEATHER ROUNDUP FOR NEBRASKA
NATIONAL WEATHER SERVICE OMAHA NE
1200 PM CDT FRI MAY 06 2016

NOTES: SATELLITE DATA IS BEING USED TO AUGMENT CLOUD COVER ABOVE
       12000 FEET.
       "FAIR" INDICATES FEW OR NO CLOUDS BELOW 12,000 FEET WITH NO
       SIGNIFICANT WEATHER AND/OR OBSTRUCTIONS TO VISIBILITY.

  * THESE STATIONS DO NOT REPORT WEATHER SUCH AS RAIN...SNOW OR FOG.

NEZ001>004-019>022-054>056-061800-
NEBRASKA PANHANDLE

CITY           SKY/WX    TMP DP  RH WIND       PRES   REMARKS
SCOTTSBLUFF    MOSUNNY   70  50  49 SE10      29.95S
ALLIANCE       CLOUDY    70  50  49 SE10      29.95F
CHADRON        CLOUDY    76  50  40 S6        29.92S
KIMBALL        CLOUDY    71  46  39 SE8       29.98F
SIDNEY         MOSUNNY   70  48  45 SE9       29.97S
$$

NEZ057>060-069>072-079>082-061800-
SOUTHWEST NEBRASKA

CITY           SKY/WX    TMP DP  RH WIND       PRES   REMARKS
NORTH PLATTE   SUNNY     77  51  40 S17       29.95F
IMPERIAL       SUNNY     74  49  41 S14       29.95F
MCCOOK         MOSUNNY   72  52  49 S15       29.96F
$$

NEZ005>010-023>029-035>040-094-061800-
NORTH CENTRAL NEBRASKA

CITY           SKY/WX    TMP DP  RH WIND       PRES   REMARKS
VALENTINE      MOSUNNY   79  47  32 SW16      29.92S
AINSWORTH      SUNNY     79  48  33 S22       29.93F
BROKEN BOW     CLOUDY    76  50  40 S21       29.98F
ORD            SUNNY     76  52  43 SW21G28   29.96S
$$

NEZ041-046>049-061>064-073>077-083>087-061800-
SOUTH CENTRAL NEBRASKA

CITY           SKY/WX    TMP DP  RH WIND       PRES   REMARKS
GRAND ISLAND   SUNNY     79  47  32 S22G30    29.99F
AURORA         SUNNY     79  46  31 SW24G30   29.99F
HASTINGS       SUNNY     76  47  35 S18G25    30.00F
KEARNEY *      MOSUNNY   75  48  38 S21G29    30.00S
YORK           SUNNY     81  41  24 SW22      30.00F
$$

NEZ011>018-030>034-042>045-061800-
NORTHEAST NEBRASKA

CITY           SKY/WX    TMP DP  RH WIND       PRES   REMARKS
NORFOLK        SUNNY     80  48  32 SW20G30   29.94F
ALBION         SUNNY     78  49  36 SW20G28   29.97S
BLAIR          SUNNY     81  47  30 S18G28    29.99F
COLUMBUS *     SUNNY     81  46  30 SW16G26   29.99S
FREMONT        SUNNY     80  46  29 S16G24    29.99S
TEKAMAH        SUNNY     81  48  31 SW17      29.96F
$$

NEZ050>053-065>068-078-088>093-061800-
SOUTHEAST NEBRASKA

CITY           SKY/WX    TMP DP  RH WIND       PRES   REMARKS
LINCOLN        SUNNY     83  41  22 SW16G23   30.01F
OMAHA EPPLEY   MOSUNNY   81  43  26 S14G22    29.99F
BEATRICE       SUNNY     78  44  30 SW17      30.03S
FALLS CITY     SUNNY     79  51  37 W12       30.04F
$$

NEZ044-045-051>053-067-061800-
OMAHA AREA

CITY           SKY/WX    TMP DP  RH WIND       PRES   REMARKS
OMAHA EPPLEY   MOSUNNY   81  43  26 S14G22    29.99F
BLAIR          SUNNY     81  47  30 S18G28    29.99F
FREMONT        SUNNY     80  46  29 S16G24    29.99S
OFFUTT AFB     SUNNY     81  45  27 SW14G21   29.99F
$$




USA.gov is the U.S. government's official web portal to all federal, state and local government web resources and services.